This demonstration page uses our WeatherBlox Daily Observations layout. Learn more.

Left ArrowRight Arrow

39.51506, -84.39828

Hourly Observations for October 20, 2020

Temp ( °F °C ) Dew Point ( °F °C ) Humidity (%) Winds ( mph kmh ) Pressure ( in mb ) Visibility ( mi km ) Precip ( " mm )
12:15 am 00:15 Cloudy with Light Rain 52 11 N/A N/A Calm 30.13 1020 7 11.26538 0 0
12:35 am 00:35 Cloudy with Mist and Fog 52 11 N/A N/A NNE 3 6 30.14 1021 2.5 4.02335 0 0
12:55 am 00:55 Cloudy 52 11 N/A N/A ENE 3 6 30.13 1020 10 16.0934 0.01 0.254
1:15 am 01:15 Cloudy with Light Rain 52 11 N/A N/A ENE 3 6 30.13 1020 5 8.0467 0 0
1:35 am 01:35 Cloudy with Light Rain 50 10 N/A N/A Calm 30.13 1020 3.5 5.63269 0 0
1:55 am 01:55 Cloudy with Drizzle 50 10 N/A N/A Calm 30.13 1020 3 4.82802 0 0
2:15 am 02:15 Cloudy with Drizzle 50 10 N/A N/A NE 6 9 30.13 1020 3 4.82802 0 0
2:35 am 02:35 Cloudy with Drizzle 50 10 N/A N/A NE 8 13 30.15 1021 10 16.0934 0 0
2:55 am 02:55 Cloudy with Rain 50 9.8 49 9.7 99 99 ENE 13 20 30.13 1020 10 16.0934 0 0
3:15 am 03:15 Cloudy with Light Rain 49 9.5 49 9.4 99 99 ENE 9 15 30.13 1020 7 11.26538 0.02 0.508
3:35 am 03:35 Cloudy with Light Rain 49 9.3 49 9.2 99 99 ENE 7 11 30.14 1021 4 6.43736 0.03 0.762
3:55 am 03:55 Cloudy 49 9.3 49 9.2 99 99 ENE 10 17 30.13 1020 10 16.0934 0.04 1.016
4:15 am 04:15 Cloudy with Rain 49 9.2 48 9.1 99 99 ENE 7 11 30.12 1020 5 8.0467 0.03 0.762
4:35 am 04:35 Cloudy with Rain 48 8.9 48 8.8 99 99 NE 7 11 30.13 1020 7 11.26538 0.14 3.556
4:55 am 04:55 Cloudy 48 8.7 47 8.5 99 99 ENE 12 19 30.13 1020 10 16.0934 0.15 3.81
5:15 am 05:15 Cloudy with Light Rain 47 8.6 47 8.4 99 99 ENE 7 11 30.14 1021 10 16.0934 0.01 0.254
5:35 am 05:35 Cloudy with Light Rain 47 8.6 47 8.4 99 99 ENE 8 13 30.14 1021 10 16.0934 0.02 0.508
5:55 am 05:55 Cloudy with Light Rain 47 8.6 47 8.4 99 99 ENE 8 13 30.14 1021 4 6.43736 0.02 0.508
6:15 am 06:15 Cloudy with Drizzle 47 8.4 47 8.3 99 99 ENE 8 13 30.15 1021 3.5 5.63269 0.01 0.254
6:35 am 06:35 Cloudy with Drizzle 47 8.5 47 8.5 100 100 ENE 7 11 30.16 1021 3 4.82802 0.02 0.508
6:55 am 06:55 Cloudy with Drizzle 46 8 46 8 100 100 NE 7 11 30.17 1022 3 4.82802 0.02 0.508
7:15 am 07:15 Cloudy with Drizzle 46 8 N/A N/A NE 5 7 30.18 1022 2.5 4.02335 0 0
7:35 am 07:35 Cloudy with Drizzle 48 9 N/A N/A ENE 7 11 30.18 1022 3 4.82802 0 0
7:55 am 07:55 Cloudy with Drizzle 48 9 N/A N/A ENE 5 7 30.2 1023 3.5 5.63269 0.01 0.254
8:15 am 08:15 Cloudy with Drizzle 48 9 N/A N/A ENE 7 11 30.2 1023 2.5 4.02335 0 0
8:35 am 08:35 Cloudy with Mist and Fog 48 9 N/A N/A ENE 7 11 30.21 1023 2.5 4.02335 0 0
8:55 am 08:55 Cloudy 48 8.8 48 8.8 100 100 E 5 7 30.22 1023 10 16.0934 0 0
9:15 am 09:15 Cloudy 48 9 48 8.9 99 99 ENE 5 7 30.23 1024 10 16.0934 0 0
9:35 am 09:35 Cloudy 48 9.1 48 9 99 99 ENE 5 7 30.24 1024 10 16.0934 0 0
9:55 am 09:55 Cloudy 49 9.2 48 9 99 99 ENE 7 11 30.23 1024 10 16.0934 0 0
10:15 am 10:15 Cloudy 49 9.4 49 9.2 99 99 ENE 7 11 30.23 1024 10 16.0934 0 0
10:35 am 10:35 Cloudy 49 9.6 49 9.3 98 98 NE 7 11 30.25 1024 10 16.0934 0 0
10:55 am 10:55 Cloudy 49 9.7 49 9.3 97 97 NE 7 11 30.25 1024 10 16.0934 0 0
11:15 am 11:15 Cloudy 50 9.9 49 9.5 97 97 E 6 9 30.25 1024 7 11.26538 0 0
11:35 am 11:35 Cloudy 50 10.1 49 9.7 97 97 E 7 11 30.25 1024 10 16.0934 0 0
11:55 am 11:55 Cloudy 51 10.4 50 9.9 97 97 ENE 7 11 30.24 1024 10 16.0934 0 0
12:15 pm 12:15 Cloudy 51 10.3 50 9.8 97 97 NE 7 11 30.24 1024 10 16.0934 0 0
12:35 pm 12:35 Cloudy 51 10.5 50 10.1 97 97 ENE 6 9 30.25 1024 10 16.0934 0 0
12:55 pm 12:55 Cloudy with Mist and Fog 51 10.6 50 10.2 97 97 ENE 7 11 30.23 1024 5 8.0467 0 0
1:15 pm 13:15 Cloudy with Mist and Fog 51 10.8 51 10.6 99 99 E 6 9 30.23 1024 3 4.82802 0 0
1:35 pm 13:35 Cloudy with Mist and Fog 52 11 51 10.8 99 99 E 6 9 30.22 1023 4 6.43736 0 0
1:55 pm 13:55 Cloudy with Mist and Fog 52 11.1 51 10.8 98 98 E 6 9 30.21 1023 5 8.0467 0 0
2:15 pm 14:15 Cloudy with Mist and Fog 52 11.2 52 10.9 98 98 E 3 6 30.21 1023 5 8.0467 0 0
2:35 pm 14:35 Cloudy with Mist and Fog 53 11.4 52 11.2 99 99 ENE 5 7 30.21 1023 5 8.0467 0 0
2:55 pm 14:55 Cloudy with Mist and Fog 53 11.5 52 11.3 99 99 E 3 6 30.21 1023 2.5 4.02335 0 0
3:15 pm 15:15 Cloudy with Mist and Fog 53 11.7 53 11.5 99 99 E 6 9 30.19 1023 4 6.43736 0 0
3:35 pm 15:35 Cloudy with Mist and Fog 53 11.7 53 11.5 99 99 E 5 7 30.19 1023 5 8.0467 0 0
3:55 pm 15:55 Cloudy 54 12 53 11.7 98 98 E 6 9 30.18 1022 10 16.0934 0 0
4:15 pm 16:15 Cloudy 54 12.4 53 11.6 95 95 E 6 9 30.18 1022 10 16.0934 0 0
4:35 pm 16:35 Cloudy 54 12.3 53 11.5 95 95 E 6 9 30.18 1022 10 16.0934 0 0
4:55 pm 16:55 Cloudy 54 12.4 53 11.6 95 95 ESE 6 9 30.18 1022 10 16.0934 0 0
5:15 pm 17:15 Cloudy 55 12.7 53 11.8 94 94 ESE 3 6 30.18 1022 10 16.0934 0 0
5:35 pm 17:35 Cloudy 55 12.7 53 11.7 94 94 SE 5 7 30.18 1022 10 16.0934 0 0
5:55 pm 17:55 Cloudy with Mist and Fog 55 12.5 53 11.9 96 96 SE 3 6 30.17 1022 7 11.26538 0 0
6:15 pm 18:15 Cloudy with Mist and Fog 54 12.3 54 12.2 99 99 Calm 30.17 1022 2 3.21868 0 0
6:35 pm 18:35 Cloudy with Mist and Fog 54 12 54 12 100 100 Calm 30.17 1022 1.5 2.41401 0 0
6:55 pm 18:55 Cloudy with Mist and Fog 54 12 N/A N/A Calm 30.16 1021 1.75 2.816345 0 0
7:15 pm 19:15 Cloudy with Mist and Fog 54 12 N/A N/A Calm 30.16 1021 3 4.82802 0 0
7:35 pm 19:35 Cloudy with Haze 54 12 N/A N/A Calm 30.16 1021 7 11.26538 0 0
7:55 pm 19:55 Cloudy 54 12 N/A N/A Calm 30.16 1021 7 11.26538 0 0
8:15 pm 20:15 Cloudy with Nearby Thunderstorms 54 12 N/A N/A Calm 30.16 1021 5 8.0467 0 0
8:35 pm 20:35 Cloudy 54 12 N/A N/A Calm 30.16 1021 10 16.0934 0 0
8:55 pm 20:55 Cloudy 54 12 N/A N/A Calm 30.15 1021 7 11.26538 0 0
9:15 pm 21:15 Cloudy 55 13 N/A N/A Calm 30.14 1021 10 16.0934 0 0
9:35 pm 21:35 Cloudy 55 13 N/A N/A Calm 30.13 1020 10 16.0934 0 0
9:55 pm 21:55 Cloudy with Nearby Thunderstorms 55 13 N/A N/A Calm 30.12 1020 7 11.26538 0 0
10:15 pm 22:15 Cloudy 55 13 N/A N/A Calm 30.12 1020 7 11.26538 0 0
10:35 pm 22:35 Cloudy with Thunderstorms 55 13 N/A N/A S 5 7 30.12 1020 10 16.0934 0 0
10:55 pm 22:55 Cloudy with Nearby Thunderstorms 57 14 N/A N/A Calm 30.12 1020 7 11.26538 0 0
11:15 pm 23:15 Cloudy with Nearby Thunderstorms 57 14 N/A N/A Calm 30.12 1020 4 6.43736 0 0
11:35 pm 23:35 Cloudy with Nearby Thunderstorms 57 14 N/A N/A Calm 30.12 1020 5 8.0467 0 0
11:55 pm 23:55 Cloudy with Haze 57 14 N/A N/A Calm 30.11 1020 5 8.0467 0 0

Powered by AerisWeather